TimePDT,TemperatureF,Dew PointF,Humidity,Sea Level PressureIn,VisibilityMPH,Wind Direction,Wind SpeedMPH,Gust SpeedMPH,PrecipitationIn,Events,Conditions,WindDirDegrees,DateUTC
12:53 AM,71.1,57.0,61,29.99,10.0,NE,4.6,-,N/A,,Clear,40,2013-08-17 07:53:00
1:53 AM,71.1,55.9,59,29.99,10.0,North,5.8,-,N/A,,Clear,350,2013-08-17 08:53:00
2:53 AM,71.1,55.0,57,30.00,10.0,Calm,Calm,-,N/A,,Clear,0,2013-08-17 09:53:00
3:53 AM,71.1,52.0,51,29.99,10.0,Calm,Calm,-,N/A,,Clear,0,2013-08-17 10:53:00
4:53 AM,66.0,51.1,59,30.00,10.0,Calm,Calm,-,N/A,,Clear,0,2013-08-17 11:53:00
5:53 AM,66.0,52.0,60,30.01,10.0,Calm,Calm,-,N/A,,Clear,0,2013-08-17 12:53:00
6:53 AM,63.0,53.1,70,30.03,10.0,Calm,Calm,-,N/A,,Clear,0,2013-08-17 13:53:00
7:53 AM,64.9,53.1,65,30.04,10.0,Calm,Calm,-,N/A,,Clear,0,2013-08-17 14:53:00
8:53 AM,69.1,53.1,57,30.04,9.0,NNW,3.5,-,N/A,,Clear,340,2013-08-17 15:53:00
9:53 AM,72.0,53.1,51,30.04,10.0,Variable,3.5,-,N/A,,Clear,0,2013-08-17 16:53:00
10:53 AM,75.9,53.1,45,30.02,9.0,Calm,Calm,-,N/A,,Clear,0,2013-08-17 17:53:00
11:53 AM,81.0,54.0,39,30.00,8.0,Variable,5.8,-,N/A,,Clear,0,2013-08-17 18:53:00
12:53 PM,84.0,53.1,34,29.98,6.0,North,6.9,-,N/A,,Haze,10,2013-08-17 19:53:00
1:53 PM,88.0,52.0,29,29.95,6.0,NW,5.8,-,N/A,,Haze,310,2013-08-17 20:53:00
2:53 PM,90.0,48.9,24,29.92,6.0,West,12.7,18.4,N/A,,Haze,270,2013-08-17 21:53:00
3:53 PM,91.9,50.0,24,29.91,10.0,NW,11.5,-,N/A,,Clear,310,2013-08-17 22:53:00
4:53 PM,91.9,51.1,25,29.91,10.0,West,11.5,16.1,N/A,,Clear,280,2013-08-17 23:53:00
5:53 PM,90.0,51.1,26,29.91,10.0,North,16.1,23.0,N/A,,Clear,350,2013-08-18 00:53:00
6:53 PM,87.1,50.0,28,29.92,10.0,NNW,10.4,-,N/A,,Clear,340,2013-08-18 01:53:00
7:53 PM,82.9,53.1,36,29.95,10.0,NNW,8.1,-,N/A,,Clear,330,2013-08-18 02:53:00
8:53 PM,80.1,54.0,40,29.98,10.0,NNW,4.6,-,N/A,,Clear,340,2013-08-18 03:53:00
9:53 PM,78.1,55.0,45,30.00,10.0,NNW,5.8,-,N/A,,Clear,340,2013-08-18 04:53:00
10:53 PM,75.9,55.9,50,30.00,10.0,NW,3.5,-,N/A,,Clear,310,2013-08-18 05:53:00
11:53 PM,73.9,55.9,53,30.01,10.0,Calm,Calm,-,N/A,,Clear,0,2013-08-18 06:53:00